Location: Vihti�l�
(61.3833°N, 23.0667°E)
Time: 04:47:53
(UTC+00:00)

Cosmos 2082 - Pass Details

Date: 29 November 2020
Orbit: 833 x 855 km, 71.0° (Epoch: 22 January)

Event Time Altitude Azimuth Distance (km) Brightness Sun altitude
Exits shadow 03:55:25 43° 286° (WNW) 1,188 4.0 -21.3°
Maximum altitude 03:56:44 52° 327° (NNW) 1,064 3.9 -21.1°
Drops below altitude 10° 04:02:21 10° 43° (NE) 2,501 6.6 -20.4°
Sets 04:04:54 0° 49° (NE) 3,440 7.5 -20.1°
